User: anonymous   Login
Location: San Francisco
(37.7790°N, 122.4199°W)
Time: 03:38:04
(UTC-07:00)
Language:

ELYUSIUM/LOWER FREE FLYE - Orbit

View from above orbital plane
View from above orbital plane
View from above satellite
View from above satellite

Ground track
Ground track

The orbit data is extracted from the following two-line orbital elements,

1 43760U 18099C   24110.76656197  .00068083  00000-0  30772-2 0  9998
2 43760  97.5223 178.2428 0008079 125.1808 235.0184 15.20642869294349
Epoch (UTC): 19 April 2024 18:23:50
Eccentricity: 0.0008079
inclination: 97.5223°
perigee height: 498 km
apogee height: 509 km
right ascension of ascending node: 178.2428°
argument of perigee: 125.1808°
revolutions per day: 15.20642869
mean anomaly at epoch: 235.0184°
orbit number at epoch: 29434

The dashed part of the orbit path shows where the satellite is in the earth's shadow,  

DLR